TimeCEST,TemperatureF,Dew PointF,Humidity,Sea Level PressureIn,VisibilityMPH,Wind Direction,Wind SpeedMPH,Gust SpeedMPH,PrecipitationIn,Events,Conditions,WindDirDegrees,DateUTC
12:55 AM,8.6,5.0,85,29.74,0.5,NE,31.1,-,N/A,Fog-Snow,Light Snow,50,2013-05-25 22:55:00
1:55 AM,8.6,5.0,85,29.74,0.5,NE,33.4,-,N/A,Fog-Snow,Light Snow,50,2013-05-25 23:55:00
2:00 AM,9,5,77,,0,NE,33.4,,,Snow,Light Snow,50,2013-05-26 00:00:00
2:55 AM,8.6,5.0,85,29.74,0.5,ENE,31.1,-,N/A,Fog,Light Freezing Fog,60,2013-05-26 00:55:00
3:55 AM,8.6,5.0,85,29.74,0.5,ENE,29.9,-,N/A,Fog,Light Freezing Fog,70,2013-05-26 01:55:00
4:55 AM,8.6,5.0,85,29.74,0.5,ENE,36.8,-,N/A,Fog,Light Freezing Fog,60,2013-05-26 02:55:00
5:00 AM,9,5,77,,0,ENE,36.8,,,Fog,Heavy Fog,60,2013-05-26 03:00:00
5:55 AM,8.6,5.0,85,29.74,0.5,ENE,36.8,-,N/A,Fog,Light Freezing Fog,60,2013-05-26 03:55:00
6:55 AM,8.6,5.0,85,29.77,6.2,ENE,28.8,-,N/A,,Scattered Clouds,60,2013-05-26 04:55:00
7:55 AM,8.6,5.0,85,29.77,6.2,NE,29.9,-,N/A,,Scattered Clouds,50,2013-05-26 05:55:00
8:00 AM,9,4,72,,9,NE,29.9,,,,Partly Cloudy,50,2013-05-26 06:00:00
8:55 AM,8.6,5.0,85,29.80,6.2,NE,25.3,-,N/A,,Scattered Clouds,50,2013-05-26 06:55:00
9:55 AM,8.6,5.0,85,29.80,6.2,NE,25.3,-,N/A,,Scattered Clouds,50,2013-05-26 07:55:00
10:55 AM,10.4,5.0,79,29.83,6.2,ENE,21.9,-,N/A,,Partly Cloudy,60,2013-05-26 08:55:00
11:00 AM,10,5,73,,16,ENE,21.9,,,,Scattered Clouds,60,2013-05-26 09:00:00
11:55 AM,10.4,6.8,85,29.86,6.2,ENE,16.1,-,N/A,,Partly Cloudy,60,2013-05-26 09:55:00
12:55 PM,12.2,8.6,85,29.89,6.2,NE,10.4,-,N/A,,Partly Cloudy,50,2013-05-26 10:55:00
1:55 PM,14.0,10.4,86,29.89,6.2,NE,13.8,-,N/A,,Partly Cloudy,40,2013-05-26 11:55:00
2:00 PM,14,10,77,,19,NE,13.8,,,,Scattered Clouds,40,2013-05-26 12:00:00
2:55 PM,15.8,12.2,86,29.89,6.2,NE,12.7,-,N/A,,Partly Cloudy,40,2013-05-26 12:55:00
3:55 PM,15.8,12.2,86,29.89,6.2,NE,13.8,-,N/A,,Partly Cloudy,50,2013-05-26 13:55:00
4:55 PM,15.8,12.2,86,29.89,6.2,NE,16.1,-,N/A,,Partly Cloudy,40,2013-05-26 14:55:00
5:00 PM,15,12,81,,12,NE,16.1,,,,Scattered Clouds,40,2013-05-26 15:00:00
5:55 PM,15.8,12.2,86,29.89,6.2,ENE,19.6,-,N/A,,Partly Cloudy,60,2013-05-26 15:55:00
6:55 PM,15.8,14.0,93,29.92,6.2,ENE,19.6,-,N/A,,Partly Cloudy,60,2013-05-26 16:55:00
7:55 PM,15.8,14.0,93,29.89,6.2,ENE,32.2,-,N/A,,Partly Cloudy,70,2013-05-26 17:55:00
8:00 PM,17,13,79,,6,ENE,32.2,,,,Scattered Clouds,70,2013-05-26 18:00:00
8:55 PM,15.8,12.2,86,29.89,6.2,ENE,33.4,-,N/A,,Partly Cloudy,60,2013-05-26 18:55:00
9:55 PM,15.8,14.0,93,29.89,6.2,ENE,26.5,-,N/A,,Partly Cloudy,60,2013-05-26 19:55:00
10:55 PM,15.8,12.2,86,29.92,6.2,NE,27.6,-,N/A,,Scattered Clouds,50,2013-05-26 20:55:00
11:00 PM,16,13,82,,6,NE,27.6,,,,Partly Cloudy,50,2013-05-26 21:00:00
11:55 PM,15.8,12.2,86,29.92,6.2,ENE,24.2,-,N/A,,Partly Cloudy,60,2013-05-26 21:55:00